Hourly Data Report for June 08, 2021

MANIWAKI AIRPORT
QUEBEC
Current Station Operator: ECCC - MSC

46°16'29.000" N
75°59'31.000" W
199.70 m
7034482
71721
WMJ

Download Data

Hourly Data (June 2021)
Hourly Data Report for June 8, 2021
TIME
LST
Temp Definition
°C
Dew Point Definition
°C
Rel Hum Definition
%
Precip. Amount Definition
mm

Wind Dir Definition
10's deg

Wind Spd Definition
km/h
Visibility Definition
km
Stn Press Definition
kPa
Hmdx Definition


Wind Chill Definition


Weather Definition


00:00 23.6 19.2 76 0.0 21 11   98.88 31   LegendNANA
01:00 23.0 19.3 80 0.0 21 9   98.91 30   LegendNANA
02:00 23.5 19.1 77 0.0 23 11   98.94 30   LegendNANA
03:00 23.5 19.0 76 0.0 24 7   98.93 30   LegendNANA
04:00 22.7 19.0 80 0.0 23 7   98.97 29   LegendNANA
05:00 21.9 18.8 83 0.0 21 5   98.99 29   LegendNANA
06:00 23.0 19.3 80 0.0 22 6   99.03 30   LegendNANA
07:00 24.3 19.8 76 0.0 24 4   99.11 32   LegendNANA
08:00 25.4 19.7 71 0.0 25 7   99.14 33   LegendNANA
09:00 26.4 20.2 69 0.0 23 7   99.11 34   LegendNANA
10:00 27.2 20.8 68 0.0 22 11   99.12 35   LegendNANA
11:00 28.4 20.3 62 0.0 20 11   99.14 36   LegendNANA
12:00 29.2 20.9 61 0.0 20 12   99.12 38   LegendNANA
13:00 30.4 20.8 57 0.0 20 12   99.04 39   LegendNANA
14:00 31.6 19.4 48 0.0 25 11   98.99 39   LegendNANA
15:00 32.0 17.3 42 0.0 29 10   98.92 37   LegendNANA
16:00 31.3 19.3 49 0.0 25 9   98.87 38   LegendNANA
17:00 29.5 21.0 60 0.0 20 14   98.87 38   LegendNANA
18:00 29.1 21.3 63 0.0 22 8   98.92 38   LegendNANA
19:00 27.6 21.7 70 0.0 21 10   98.92 37   LegendNANA
20:00 25.0 21.5 81 0.0 0 1   98.94 34   LegendNANA
21:00 22.6 21.0 91 0.0 24 3   99.00 31   LegendNANA
22:00 25.1 17.6 63 0.0 34 16   99.09 31   LegendNANA
23:00 23.2 13.2 53 0.0 1 10   99.14 26   LegendNANA

Notes on Data Quality.

Legend

  • E = Estimated
  • M = Missing
  • NA = Not Available*
  • [empty] = Indicates an unobserved value
Date modified: